Terug naar catalogus

HEAD-1

ActiefWetenschapSSO
NORAD 43011·PAYLOAD·🇨🇳 China

Gelanceerd Nov 14, 2017 vanaf Taiyuan Satellite Launch Center

Loading…

Volgende Passages (komende 24 uur)

TLE

VersSource: Space-Track

Epoch: Sep 14, 2026, 14:15 UTC

1 43011U 17072B   26257.59390139  .00000162  00000-0  82768-4 0  9991
2 43011  98.9534 278.4872 0008881 253.9140 106.1063 14.28844392460121

Volg HEAD-1 in realtime met AllMySat

Download on the App Store